Flight Information

DEPARTURE
LAS VEGAS, NV
Elevation:
2491
Runways:
17R/35L - 6501x100 - ASPH-E
17L/35R - 5001x75 - ASPH-E
Active PE Departure:
17L - 17R
Current PE ATIS:
C
Altimeter:
29.97
Remarks:
ATIS:
120.775 702-614-4537
Ground:
127.8
Tower:
125.1
DESTINATION
,
Elevation:
TPA:
1000 (est.)


6606.1 NM75° True-14° Var60° HDG

Flight Plan:
(click to file on line)

1. Type
2. Aircraft Identification
3. Aircraft Type / Special Equipment
4. True Airspeed
kts
5. Departure Airport
(ICAO code)
6. Arriving Airport
(ICAO code)
7. Cruising Altitude
ft
8. Alternate Airport
(ICAO code)
9. Route of Flight
10. Remarks


00:00:00 Departure ATIS: Destination ATIS:

Clearance Limit:
Route:
Altitude: Expect in minutes
Frequency:
Transponder: (7500 Hijack / 7600 Lost Comms / 7700 Emergency)


KHND 051556Z 20008KT 10SM CLR 34/M02 A2997 RMK AO2 SLP127 T03441017
Time: 2020-07-05T15:56:00Z
1593967448
Winds: 200 @ 8 kts
Visibility: 10.0 sm
Clouds (AGL): CLR
Temperature: 34.4 C
Dew Point: -1.7 C
Pressure: 29.970472 in Hgbr


Notes:

Data extracted from FAA Digital Chart Supplement. Effective: 0901Z Thursday, May 21, 2020 to 0901Z Thursday, Jul 16, 2020
Current ATIS data is provided courtisy of PilotEdge.